Regional Weather Roundup
Issued by NWS Newport/Morehead, NC

Current Version | Previous Version | Text Only | Print | Product List | Glossary On
Versions: 1 2 3 4 5 6 7 8 9 10 11 12 13 14 15 16 17 18 19 20 21 22 23 24 25 26 27 28 29 30 31 32 33 34 35 36 37 38 39 40 41 42 43 44 45 46 47 48 49 50
000
ASUS42 KMHX 191325
RWRMHX
WEATHER ROUNDUP FOR EASTERN NORTH CAROLINA
NATIONAL WEATHER SERVICE NEWPORT/MOREHEAD CITY NC
800 AM EST SUN NOV 19 2017

NOTE: "FAIR" INDICATES FEW OR NO CLOUDS BELOW 12,000 FEET
WITH NO SIGNIFICANT WEATHER AND/OR OBSTRUCTIONS TO VISIBILITY

NCZ015>017-031-032-045>047-102-103-191400-
NORTH COAST

CITY           SKY/WX    TMP DP  RH WIND       PRES   REMARKS
EDENTON        CLOUDY    62  58  87 W5        29.64R
ELIZABETH CITY CLOUDY    61  59  93 W15       29.60R
KITTY HAWK     CLOUDY    61  58  92 SW10G18   29.59R
MANTEO         CLOUDY    62  58  88 W15G22    29.61R

$$

NCZ045>047-081-094-103-104-191400-
CENTRAL COAST

CITY           SKY/WX    TMP DP  RH WIND       PRES   REMARKS
FRISCO         LGT RAIN  67  61  81 SW26G40   29.64R

$$

NCZ095-097-098-100-101-191400-
SOUTHERN COAST

CITY           SKY/WX    TMP DP  RH WIND       PRES   REMARKS
BEAUFORT       CLOUDY    64  61  90 SW22G30   29.68R
CEDAR ISLAND   NOT AVBL
JACKSONVILLE   NOT AVBL
PINEY ISLAND   NOT AVBL
WILMINGTON     CLOUDY    63  60  90 SW13      29.71R


$$

NCZ011>013-027>030-043-044-078>080-089-090>093-098-191400-
COASTAL PLAIN

CITY           SKY/WX    TMP DP  RH WIND       PRES   REMARKS
AHOSKIE        CLOUDY    55  41  59 NW6       29.67R
CLINTON        CLOUDY    58  47  66 NW12G18   29.75R
ELIZABETHTOWN  NOT AVBL
GOLDSBORO      CLOUDY    59  46  63 NW15G30   29.70R
GREENVILLE     CLOUDY    59  54  82 NW9       29.72R
HAVELOCK       LGT RAIN  64  62  93 SW13      29.68R
KENANSVILLE    CLOUDY    59  54  82 W10G16    29.73R
KINSTON        CLOUDY    59  55  88 W6        29.70R
NEW BERN       CLOUDY    63  60  90 SW10G18   29.67R
RICHLANDS      LGT RAIN  61  54  77 W7G18     29.72R
ROCKY MOUNT    PTSUNNY   55  42  61 NW16G24   29.71R
WASHINGTON     CLOUDY    59  56  88 W8        29.67R
WHITEVILLE     CLOUDY    64  57  76 SW5       29.73R

$$

AMZ130-135-150-152-154-156-158-170-250-252-270-ANZ085-086-088-633-658-670-191400-
MARINE OBSERVATIONS

STATION/POSITION TIME  TEMP    WIND        PRES    WAVE   SWELL
                       AIR SEA DIR/SP/G            HT/PER HT/PER
                 (UTC) (F)     (DEG/KT/KT) (MB)    (FT/S) (FT/S)
CHESAPEAKE LIGHT NOT AVBL
64 E VA BEACH    1250   63 62  240/ 25/ 29 1000.5    8/ 6
DUCK             NOT AVBL
2 E DUCK         1300      62                N/A     3/ 4
OREGON INLET     NOT AVBL
13E OREGON INLT  1248      62                N/A     6/ 8
HATTERAS CG      NOT AVBL
DIAMOND BUOY     1310   69     240/ 31/ 39 1004.3
CAPE LOOKOUT     1300          240/ 16/ 21 1005.8
BEAUFORT LAB     NOT AVBL
30 SE NEW RVR IN 1308   67 70  220/ 21/ 29 1005.8
30 SE NEW RVR IN 1300      70                N/A    11/ 8   2/11
27 SE WRIGHTSVLE 1308   66 68  220/ 23/ 33 1005.9
5 SE WRIGHTSVLE  1308   65 64  250/ 12/ 17 1005.8
225 S CAPE HAT   1250   76 77  210/ 23/ 29 1010.1    6/ 5   2/ 9
41 SE CHARLESTON 1310   70     260/ 25/ 31 1008.1

$$




USA.gov is the U.S. government's official web portal to all federal, state and local government web resources and services.